[Iaude] MPEC G141: 2024 GU2 [a=1.86,e=0.43,i=4.9,H=25.2]

mpec at cfa.harvard.edu mpec at cfa.harvard.edu
Wed Apr 10 20:17:39 EDT 2024


M.P.E.C. 2024-G141                               Issued 2024 April 11, 00:16 UT

     The Minor Planet Electronic Circulars contain information on unusual
         minor planets, routine data on comets and natural satellites,
         and occasional editorial announcements.  They are published
    on behalf of Division F of the International Astronomical Union by the
          Minor Planet Center, Smithsonian Astrophysical Observatory,
                          Cambridge, MA 02138, U.S.A.
			  
             Prepared using the Tamkin Foundation Computer Network

                              MPC at CFA.HARVARD.EDU
            URL https://www.minorplanetcenter.net/    ISSN 1523-6714

                                    2024 GU2                                    


Observations:
     K24G02U* C2024 04 09.31274212 37 13.538+12 46 13.70         21.25wXEG141F52
     K24G02U  C2024 04 09.32388912 37 16.900+12 46 52.40         21.66wXEG141F52
     K24G02U  C2024 04 09.33505212 37 20.296+12 47 31.19         21.28wXEG141F52
     K24G02U  C2024 04 09.34618312 37 23.619+12 48 09.48         21.48wXEG141F52
     K24G02U  C2024 04 09.55883312 38 27.962+13 00 08.47               VEG141F51
     K24G02U  C2024 04 09.55930412 38 28.095+13 00 10.03         21.08GVEG141F51
     K24G02U 7C2024 04 10.04741012 41 19.169+13 27 54.27         21.5 GVEG141Z84
     K24G02U 7C2024 04 10.05538512 41 21.756+13 28 22.03         21.2 GVEG141Z84
     K24G02U KC2024 04 10.20052512 42 17.940+13 36 53.30         21.03GVEG141I52
     K24G02U KC2024 04 10.20239312 42 18.630+13 37 00.30         20.50GVEG141I52
     K24G02U KC2024 04 10.20426412 42 19.180+13 37 07.00         21.11GVEG141I52
     K24G02U KC2024 04 10.20612912 42 19.810+13 37 13.20         20.82GVEG141I52
     K24G02U 1C2024 04 10.34464312 43 04.343+13 45 19.87         21.26GVEG141G96
     K24G02U 1C2024 04 10.34985312 43 06.085+13 45 37.94         20.76GVEG141G96
     K24G02U 1C2024 04 10.35506512 43 07.813+13 45 55.30               VEG141G96
     K24G02U 1C2024 04 10.36029112 43 09.448+13 46 14.05         21.53GVEG141G96
     K24G02U 1C2024 04 10.98716 12 47 00.15 +14 22 48.8          20.9 VXEG141033
     K24G02U 1C2024 04 10.98924 12 47 00.91 +14 22 56.3          20.8 VXEG141033
     K24G02U 1C2024 04 10.99133 12 47 01.61 +14 23 03.4          21.0 VXEG141033
     K24G02U 1C2024 04 10.99341 12 47 02.33 +14 23 10.9          21.1 VXEG141033

Observer details:
033 Karl Schwarzschild Observatory, Tautenburg.  Observers S. Melnikov, C.
    Hogner, F. Ludwig, M. Hartmann, B. Stecklum.  Measurer B. Stecklum.
    1.34-m f/3 Schmidt + CCD.
F51 Pan-STARRS 1, Haleakala.  Observers J. Herman, T. Lowe, P. Minguez, A.
    Schultz, I. Smith.  Measurers K. Chambers, T. de Boer, J. Fairlamb, H.
    Gao, M. Huber, C.-C. Lin, E. Magnier, Y. Ramanjooloo, R. Wainscoat, R.
    Weryk.  1.8-m Ritchey-Chretien + CCD.
F52 Pan-STARRS 2, Haleakala.  Observers J. Herman, T. Lowe, P. Minguez, A.
    Schultz, I. Smith.  Measurers K. Chambers, T. de Boer, J. Fairlamb, H.
    Gao, M. Huber, C.-C. Lin, E. Magnier, Y. Ramanjooloo, R. Wainscoat, R.
    Weryk.  1.8-m Ritchey-Chretien + CCD.
G96 Mt. Lemmon Survey.  Observer A. D. Grauer.  Measurers T. Beuden, V. F.
    Carvajal, D. Fay, J. B. Fazekas, D. C. Fuls, A. R. Gibbs, A. D. Grauer, H.
    Groeller, J. K. Hogan, R. A. Kowalski, S. M. Larson, G. J. Leonard, D.
    Rankin, R. L. Seaman, F. C. Shelly, K. W. Wierzchos.  1.5-m reflector +
    10K CCD.
I52 Steward Observatory, Mt. Lemmon Station.  Observer G. J. Leonard.
    Measurers T. Beuden, V. F. Carvajal, D. Fay, J. B. Fazekas, D. C. Fuls, A.
    R. Gibbs, A. D. Grauer, H. Groeller, J. K. Hogan, R. A. Kowalski, S. M.
    Larson, G. J. Leonard, D. Rankin, R. L. Seaman, F. C. Shelly, K. W.
    Wierzchos.  1.0-m prime focus + CCD.
Z84 Calar Alto-Schmidt.  Observers F. Ocana, R. Kresken, M. Micheli, L.
    Conversi.  Measurers F. Ocana, M. Micheli.  0.8-m f/3 Schmidt + CCD.

Orbital elements:
2024 GU2                                                 Earth MOID = 0.0699 AU
Epoch 2024 Mar. 31.0 TT = JDT 2460400.5                 MPC                     
M 346.50537              (2000.0)            P               Q                  
n   0.38849459     Peri.   42.75747     -0.70120488     +0.71294833             
a   1.8601418      Node   182.72819     -0.67494779     -0.66563821             
e   0.4340906      Incl.    4.87914     -0.22968934     -0.22052314             
P   2.54           H   25.26          G   0.15           U   8                  
Residuals in seconds of arc
240409 F52  0.3-  0.1-    240410 Z84  0.3+  0.5+    240410 G96  0.5+  0.5-
240409 F52  0.3-  0.0     240410 I52  0.4-  0.5-    240410 G96  0.5-  0.2+
240409 F52  0.2+  0.2+    240410 I52  0.8+  0.2-    240410 033  0.3-  0.4+
240409 F52  0.0   0.1+    240410 I52  0.0   0.1-    240410 033  0.3+  0.5+
240409 F51  0.1+  0.1+    240410 I52  0.4+  0.6-    240410 033  0.1-  0.2+
240409 F51  0.1-  0.1+    240410 G96  0.6-  0.1+    240410 033  0.1-  0.3+
240410 Z84  0.2-  0.1+    240410 G96  0.1+  0.2+

Ephemeris:
2024 GU2                 a,e,i = 1.86, 0.43, 5                   q = 1.0527
Date    TT    R. A. (2000) Decl.     Delta      r    Elong.  Phase     V
2024 03 12    11 27 51.7 -02 18 54   0.2076  1.2005   174.3     4.7    22.6
...
2024 03 27    11 48 50.4 +03 07 01   0.1381  1.1339   169.6     9.2    21.8
...
2024 04 04    12 12 27.8 +08 14 02   0.1094  1.1051   162.8    15.5    21.5
...
2024 04 10    12 41 04.3 +13 25 47   0.09195 1.0871   157.1    21.1    21.3
2024 04 11    12 47 05.8 +14 24 30   0.08945 1.0845   156.0    22.1    21.3
2024 04 12    12 53 32.4 +15 24 55   0.08708 1.0819   154.9    23.1    21.2
...
2024 04 18    13 42 06.4 +21 48 08   0.07578 1.0687   147.4    30.4    21.1
...
2024 04 26    15 12 53.4 +28 57 44   0.06995 1.0571   135.3    42.1    21.2
...
2024 05 11    17 53 59.7 +28 41 27   0.08645 1.0549   119.2    56.7    22.1

A. U. Tomatic                (C) Copyright 2024 MPC           M.P.E.C. 2024-G141





More information about the Iaude mailing list